Terug naar catalogus

HYVRID

ActiefWetenschapSSO
NORAD 63260·PAYLOAD·🇰🇷 South Korea

Gelanceerd Mar 15, 2025 vanaf Vandenberg Space Force Base

Loading…

Volgende Passages (komende 24 uur)

TLE

VersSource: Space-Track

Epoch: Sep 14, 2026, 15:38 UTC

1 63260U 25052BC  26257.65149900  .00001428  00000-0  13608-3 0  9993
2 63260  97.6704 147.1345 0002887  61.1406 299.0104 14.94893400 81994

Volg HYVRID in realtime met AllMySat

Download on the App Store